STARLINK-32282 (61006 NORAD) Tracking and Keplerian Element Data

This shows tracking and keplerian element data for the satellite.

Feedback or suggestion? Click here.




ElementValue
Catalog61006
NameSTARLINK-32282
Epoch Orbit704
Epoch Day286.74848507
Epoch Year2024
RAAN293.3438
Inclination53.162
Eccentricity0.0001219
Argument of Perigee89.6551
Mean Anonmoly270.4594
Mean Motion15.39632616
Decay Rate6.544E-05
L11 61006U 24158S 24286.74848507 .00006544 00000+0 17338-3 0 9991
L22 61006 53.1620 293.3438 0001219 89.6551 270.4594 15.39632616 7045



Live tracking and technical data element details for STARLINK-32282 (NORAD 61006). STARLINK-32282 can be tracked NOW for your location showing map with azimuth and elevation plus other details from your city location.







IsCatalogInMostPopularTable: catalog: 61006, numindb: 9
Update: records affected: 1



GetName: 61006 STARLINK-32282

Hit Count: updated at: Tue, 03 Dec 2024 02:52:25 GMT